Погода Маресале

Погода Маресале : погода сейчас, прогноз погоды и архив. Всё, что Вы хотите узнать о погоде Маресале!

Хотите узнать прогноз погоды Маресале? Тогда Вам сюда: Погода Маресале

Поиск расширенной информации на нашем сайте:

Другие новости

Новости СМИ2

Главная страница сайта

Новости сайта

03.07.2017

Напоминаем, что на нашем специализированном сайте Метеоцентр.Азия вы можете получить высокодетализированные автоматические прогнозы погоды по пунктам России, СНГ и мира в авиационном формате (включающие направление и скорость ветра, видимость, явления погоды, количество и форму облачности, нижнюю и верхнюю границу облачности).

Рекомендуем: Очень заманчивое предложение:. Частотный преобразователь 5.5 кВт - широкий выбор!

Погода Маресале - сегодня

Время (UTC), дата Ветер
(°,м/с) 
Видим.   Явления Облачность Т
(°С)
Тd
(°С)
f(%) Тe
(°С)
Pmin
(гПа)
dP
(гПа)
Po
(мм)
O2
(г/м3)
Тmin Tmax R s Состояние
почвы
06 18.07.17 200 (Ю) 10 км    8/3 600 м верхняя 
[Sc|Ci fib]
+19.6 +11.7 60 +23  1016.1  -0.2  760  283           
09 18.07.17 180 (Ю) 10 км    10/3 600 м верхняя 
[Sc|Ci fib]
+24.2 +11.1 44 +27  1015.8  -0.2  760  279           
12 18.07.17 150 (ЮВ) 10 км    8/1 600 м верхняя 
[Sc|Ci fib]
+25.4 +10.4 39 +27  1015.2  -0.7  759  278           
15 18.07.17 140 (ЮВ) 10 км    6/4 600 м средняя 
[Sc|Ac trans]
+23.8 +12.3 49 +28  1014.9  -0.3  759  279    +26       
18 18.07.17 180 (Ю) 10 км    3/1 600 м средняя 
[Sc|Ac trans]
+17.8 +13.8 77 +24  1014.9  759  284           
21 18.07.17 120 (ЮВ) 10 км    8/4 600 м средняя 
[Sc|Ac trans]
+16.9 +14.4 85 +24  1014.9  759  285           
00 19.07.17 360 (С) 10 км    4/3 600 м средняя 
[Sc|Ac trans]
+15.5 +13.8 90 +23  1015.3  0.3  759  287           
03 19.07.17 300 (СЗ) 10 км    6/3 600 м средняя, верхняя 
[Sc|Ac trans|Ci fib]
+18.1 +14.4 79 +27  1015.5  0.3  759  284  +14.9        сухая 
06 19.07.17 240 (ЮЗ) 10 км    3/0 средняя, верхняя 
[Ac trans|Ci fib]
+18.9 +15.6 81 +29  1015.3  -0.2  759  283           
09 19.07.17 320 (СЗ) 10 км    4/0 средняя, верхняя 
[Ac trans|Ci fib]
+18.5 +14.3 77 +26  1015.3  759  284           
12 19.07.17 320 (СЗ) 10 км    8/0 средняя, верхняя 
[Ac trans|Cc]
+20.7 +15 70 +29  1015  -0.3  759  281           
15 19.07.17 340 (С) 10 км    10/0 средняя, верхняя 
[Ac trans|Cs]
+22.7 +13.6 56 +29  1014.1  -0.9  758  279    +24.1       
18 19.07.17 100 (В) 10 км    10/3 600 м средняя, верхняя 
[Sc|Ac trans|Ci fib]
+20 +15.7 76 +30  1014.5  0.4  759  282           
21 19.07.17 090 (В) 10 км    8/3 600 м средняя, верхняя 
[Sc|Ac trans|Ci fib]
+19.1 +15.3 79 +29  1014.3  -0.3  758  282           
00 20.07.17 090 (В) 10 км    10/3 600 м средняя 
[Sc|Ac As]
+19 +14.9 77 +27  1013.8  -0.4  758  283           
03 20.07.17 140 (ЮВ) 10 км    10/3 600 м средняя 
[Sc|Ac As]
+21.8 +17.6 77 +35  1013.6  -0.3  758  279  +18.3        сухая 
06 20.07.17 190 (Ю) 10 км    10/3 600 м средняя 
[Sc|Ac As]
+18.9 +14.3 75 +26  1014  0.4  758  283           
09 20.07.17 200 (Ю) 10 км    10/6 600 м средняя 
[Sc|Ac As]
+21.4 +13 59 +27  1014.6  0.6  759  281           
12 20.07.17 070 (В) 8-10{10}  10 км    8/4 600 м средняя 
[Sc|Ac trans]
+25.2 +13.6 49 +31  1014.2  -0.4  758  277           
15 20.07.17 110 (В) 8-10{11}  10 км    6/3 600 м средняя, верхняя 
[Sc|Ac trans|Ci fib]
+22.6 +16.3 68 +33  1014.1  -0.1  758  279    +25.3       
18 20.07.17 110 (В) 6{10}  10 км    8/3 600 м средняя 
[St|Ac trans]
+19.5 +15.4 77 +29  1014.2  0.3  758  282           
21 20.07.17 130 (ЮВ) 10 км    8/6 600 м средняя 
[Sc|Ac trans]
+18.7 +16.4 86 +30  1013.9  -0.3  758  282           
00 21.07.17 120 (ЮВ) 10 км    8/4 600 м средняя 
[Sc|Ac trans]
+18.4 +16.8 90 +31  1014.5  0.6  759  283           
03 21.07.17 140 (ЮВ) 10 км    8/3 600 м верхняя 
[Sc|Ci fib]
+21.6 +17.3 77 +34  1014.8  0.3  759  280  +17.2        сухая 
06 21.07.17 190 (Ю) 10 км    6/1 600 м средняя, верхняя 
[Sc|Ac trans|Ci fib]
+19.2 +14.7 75 +28  1015.7  0.9  760  283           
Время (UTC), дата Ветер
(°,м/с) 
Видим.   Явления Облачность Т
(°С)
Тd
(°С)
f(%) Тe
(°С)
Pmin
(гПа)
dP
(гПа)
Po
(мм)
O2
(г/м3)
Тmin Tmax R s Состояние
почвы

Для получения пояснительной информации подведите курсор к названию столбца.

ПОГОДА Маресале - архив

Всё, что Вы хотите узнать о погоде Маресале - удобно и подробно!

Выберите нужную дату (начиная с 1 января 2015* года) и нажмите кнопку "Найти".
Будут отображены архивные сводки погоды по пункту Маресале, начиная с указанной даты.


Отображать данные в формате CSV (для использования в таблицах Excel)


Внимание! Наш архив погоды предназначен исключительно для личного некоммерческого использования в познавательных целях. Если Вам необходимы официальные справки о состоянии погоды (для производственных, юридических, коммерческих и т.п. целей), обращайтесь в органы Росгидромета.

*Примечание: данная дата относится к архиву по метеостанциям СССР (Россия, СНГ, Балтия).
Архив по метеостанциям Зарубежной Европы и Азии (кроме Китая) хранится 10 дней, по другим регионам земного шара (Китай, Африка, Америка, Австралия, Океания) - 1 день.

Маресале - район местоположения метеостанции


Название, широта, долгота, высота метеостанции:
Маресале 69.7°ш. 66.8°д. 25 м над ур. моря [Российская Федерация]

Дополнительная информация

В oтличие oт бoльшинства пoгoдных сайтoв мы публикуем пoдрoбную метеoинфoрмацию в детальнoм прoфессиoнальнoм фoрмате.

Характеристики температуры и влажнoсти вoздуха измеряются на высoте 2 м в тени вдали oт зданий и деревьев.
Скoрoсть ветра измеряется на высoте 10 м (на урoвне рoста челoвека скoрoсть ветра ниже в 1.5-2 раза). Если метеoстанция нахoдится в гoрoде или в лесу, тo скoрoсть ветра занижена на 2-4 м/с пo сравнению с oткрытым местoм. Скoрoсть ветра над акватoриями крупных рек и oзёр, а также на вершинах хoлмoв на 2-5 м/с выше, чем в oбычных услoвиях.
Атмoсфернoе давление в разных тoчках местнoсти мoжет значительнo oтличаться oт давления на метеoстанции, в зависимoсти oт услoвий рельефа (при пoдъёме на 10 м давление пoнижается примернo на 1 мм рт.ст.).